Theta_e
353 351 349 355 357 360 360 364 362 359 358 358 359 356 354 354 355 353 352 354 357 358 359 358 358 359 358 359 359 357 355 355 353 354 355 354 354 354 354 352 352 350 349
351 356 354 353 356 358 359 358 361 361 361 359 356 357 356 355 356 357 354 353 356 358 359 359 361 357 358 359 360 359 358 358 357 355 356 356 356 354 355 353 352 352 352
358 356 353 353 355 357 358 358 358 357 356 358 356 355 354 355 353 354 354 356 355 357 358 359 359 358 357 361 361 360 359 359 358 356 355 357 355 355 355 354 354 354 354
357 357 355 354 355 355 353 351 352 352 352 352 352 351 351 352 352 353 353 353 355 354 357 358 358 358 358 358 359 359 358 358 357 357 356 356 357 355 355 355 355 354 354
355 352 351 352 357 353 350 351 350 349 345 348 348 348 348 347 348 349 350 351 352 353 355 357 357 356 359 358 359 359 358 355 354 355 356 357 356 355 354 355 354 354 354
355 354 352 355 357 356 354 353 352 351 350 349 346 345 346 346 345 344 345 346 349 352 356 358 357 356 358 359 359 359 357 356 353 353 354 354 354 354 353 352 352 353 353
349 352 350 353 355 354 354 355 352 350 346 347 344 344 345 347 346 346 348 348 346 352 357 357 364 365 357 357 356 356 356 355 356 353 352 352 350 352 352 352 351 350 351
354 352 354 354 355 352 352 352 350 344 342 346 341 341 335 340 343 345 345 348 350 351 353 356 358 361 363 361 360 356 357 357 355 355 354 351 351 350 349 350 348 350 349
353 353 353 354 353 351 348 351 350 344 339 341 345 343 335 332 338 339 343 345 347 349 351 353 355 356 359 361 358 357 353 351 353 355 355 354 351 349 349 347 346 347 349
349 350 351 352 353 351 350 350 351 347 344 341 340 342 345 342 338 332 341 341 344 345 350 352 354 356 358 360 355 352 349 348 349 351 351 351 349 349 349 350 349 348 346
348 348 350 350 353 353 352 351 350 349 344 341 339 342 339 343 346 342 334 335 340 342 342 345 351 354 352 352 352 349 345 343 344 346 346 346 345 345 347 346 346 347 348
346 349 349 348 348 350 350 351 350 348 348 344 344 346 345 340 341 340 340 334 336 339 342 344 346 346 349 351 348 345 343 341 339 338 339 340 341 342 344 345 345 344 345
341 345 347 342 343 346 349 351 350 350 349 345 345 345 348 348 350 349 343 336 332 335 338 338 339 341 343 343 343 341 341 338 336 336 337 338 339 341 342 344 345 346 345
342 344 345 345 343 344 347 347 342 342 347 348 346 346 347 350 350 350 337 333 329 331 335 333 335 336 336 338 338 336 335 334 333 332 332 332 335 336 337 338 339 340 341
340 342 343 342 343 344 345 345 339 340 341 341 344 347 347 349 349 351 348 346 341 327 328 334 330 331 333 333 333 332 332 331 330 329 328 329 330 330 331 333 333 334 334
342 340 340 341 341 341 342 342 340 342 342 339 340 341 341 343 347 348 348 345 345 341 328 333 327 326 329 329 330 328 328 328 327 326 325 325 326 326 327 328 329 330 332
341 339 339 339 338 338 339 339 338 339 339 339 340 338 337 341 340 342 347 347 339 338 328 327 326 325 323 323 323 325 325 325 324 324 323 321 320 320 320 321 322 324 326
339 338 337 336 335 335 336 336 335 335 335 335 336 334 334 336 336 340 339 339 341 342 334 325 322 320 320 321 321 319 320 320 321 322 320 318 317 316 315 315 315 315 316
338 337 336 334 333 333 333 334 333 333 332 332 334 334 333 336 334 331 333 334 335 335 335 329 322 321 320 320 317 317 316 315 317 318 319 318 316 315 313 313 312 311 311
337 336 336 335 333 331 331 330 330 329 329 330 331 332 330 330 334 334 332 333 332 330 328 323 320 318 319 319 319 316 313 315 312 312 314 316 317 315 314 313 313 312 311
336 335 334 334 334 332 329 331 330 325 326 327 327 329 330 328 325 327 334 335 335 330 326 323 320 319 317 317 316 317 313 314 314 319 315 315 319 317 317 314 313 312 311
336 334 333 333 333 330 321 323 326 323 323 323 322 322 327 328 324 319 320 321 326 333 329 326 323 321 321 320 318 316 314 315 313 321 319 315 319 314 316 314 311 310 311
330 326 330 332 333 331 318 318 322 325 322 320 320 319 318 320 325 326 321 322 320 320 325 331 325 325 324 326 325 319 319 317 315 317 322 313 316 314 319 315 310 309 309
328 323 322 328 331 324 315 314 319 326 324 323 321 321 320 318 318 322 322 322 320 319 321 321 323 325 327 328 327 327 324 316 318 319 319 313 314 314 318 318 311 309 308
330 326 325 325 323 320 311 312 320 324 322 320 321 321 321 320 309 312 319 319 318 314 309 310 311 312 311 311 314 324 322 319 319 320 322 319 314 314 317 315 315 310 309
328 319 316 318 313 316 306 308 318 321 319 318 318 319 309 316 308 309 319 317 315 316 316 316 316 315 316 313 313 318 314 313 315 316 322 318 319 317 312 315 315 314 313
Wind_Speed
3 3 2 3 2 4 4 4 5 5 5 6 6 6 7 7 7 5 4 9 10 11 15 16 14 15 17 15 15 15 15 15 14 13 15 14 13 13 13 12 12 12 11
3 4 4 4 4 4 5 4 4 4 5 5 6 6 7 7 7 7 6 6 11 11 12 17 16 18 18 17 16 17 16 17 15 14 14 13 12 13 13 14 13 14 13
5 5 5 5 4 4 5 5 5 5 5 5 7 6 6 7 7 7 6 6 7 11 12 16 18 19 18 18 18 16 16 16 16 16 15 14 13 13 14 14 14 13 14
7 6 6 5 3 4 3 2 4 5 6 6 6 6 6 7 8 8 7 7 7 7 9 13 17 18 17 17 18 18 18 16 16 16 17 17 15 15 14 16 16 15 15
7 7 5 5 5 4 5 5 5 5 5 6 6 6 6 6 8 8 10 10 9 9 7 8 12 17 17 18 19 17 15 16 18 17 17 18 17 17 16 16 16 16 16
5 6 4 6 5 5 5 5 6 5 6 5 5 5 6 6 6 7 9 9 11 11 10 10 8 9 14 14 15 15 14 15 18 18 17 16 17 18 19 17 17 17 18
2 4 3 4 4 4 4 5 4 5 5 4 4 6 7 8 8 7 7 7 9 9 9 8 6 6 6 11 12 14 14 16 16 19 16 16 21 16 16 17 16 18 19
5 4 2 1 3 4 4 5 5 3 3 4 4 4 5 5 6 7 6 6 8 6 8 9 9 7 6 5 6 9 12 16 17 21 21 21 22 18 16 12 13 17 19
5 4 2 1 2 4 4 5 5 7 5 4 7 4 3 5 2 1 2 3 4 5 5 7 8 8 7 6 5 4 5 6 8 15 18 18 18 18 17 21 20 19 15
5 4 4 3 3 3 4 4 5 6 6 5 3 6 6 3 2 3 3 3 4 3 3 4 5 5 4 3 3 6 7 9 10 11 10 5 4 9 15 21 20 21 20
5 5 4 3 2 2 3 5 5 5 4 4 4 3 6 6 4 2 3 3 2 3 3 3 3 3 5 4 5 9 11 11 10 10 8 7 5 6 8 6 4 8 9
4 6 6 5 4 2 3 3 4 4 3 5 4 6 5 4 7 4 2 2 3 4 5 5 5 5 5 5 9 11 13 10 9 10 8 6 6 6 8 8 6 6 8
5 6 6 6 4 5 3 3 4 2 2 3 5 5 5 5 3 4 3 2 2 1 2 5 5 6 6 6 8 13 14 11 10 9 8 8 9 8 8 7 6 5 3
5 6 6 7 6 6 5 5 4 3 3 1 3 3 3 4 4 1 2 3 2 1 1 4 5 4 6 6 11 14 9 13 13 12 12 12 12 13 14 13 11 9 8
5 6 6 6 7 9 8 7 5 6 5 4 4 3 3 1 2 2 2 3 2 3 2 4 3 5 5 6 9 8 9 13 14 13 13 13 14 14 14 15 15 13 13
6 6 6 7 8 9 8 7 7 8 7 6 5 6 6 4 3 2 0 1 0 2 3 2 4 3 5 5 9 9 10 13 15 14 15 15 15 15 14 14 14 15 14
6 8 8 8 8 8 8 8 8 7 8 8 8 8 7 7 5 4 3 1 3 2 4 3 2 4 4 7 7 8 8 8 9 16 16 16 16 15 14 15 15 15 15
7 8 8 9 9 9 9 10 9 8 9 10 9 9 9 6 7 6 4 5 3 4 3 4 3 2 4 5 7 7 6 7 7 14 15 14 15 15 15 15 14 14 13
8 8 8 9 9 9 10 9 10 10 10 10 10 10 10 9 9 7 7 5 5 4 4 5 4 2 2 3 5 6 6 5 5 9 12 15 14 15 15 15 15 13 13
7 7 7 7 9 9 9 9 9 9 9 9 10 11 11 10 10 8 7 7 6 5 6 6 5 4 3 3 2 3 4 3 3 3 9 10 10 13 15 15 14 14 12
7 7 7 6 6 7 6 8 8 8 8 9 10 10 11 13 17 15 7 8 7 6 6 5 4 3 2 1 1 2 2 2 2 2 3 3 4 5 7 10 11 12 11
7 6 6 6 6 5 6 7 7 8 9 9 9 9 9 10 14 16 15 18 13 7 7 6 5 5 4 3 2 2 2 2 1 4 2 3 4 4 4 5 8 9 9
6 5 4 5 6 6 6 8 7 8 8 9 9 8 8 7 8 9 11 12 16 16 14 8 7 6 4 3 3 3 2 1 1 2 1 2 0 2 2 6 6 7 7
7 5 4 4 6 6 3 7 6 7 8 8 8 8 8 9 8 8 9 11 12 12 11 8 8 7 6 5 3 1 2 3 3 3 2 0 2 3 4 4 6 6 6
8 7 5 5 5 5 3 4 3 5 7 7 7 7 6 7 6 6 8 9 9 9 10 12 12 10 10 10 8 3 1 3 1 2 3 1 2 2 3 4 7 7 6
9 8 7 5 6 3 3 2 1 4 5 5 5 6 10 5 5 6 5 4 5 5 4 5 6 7 6 7 7 7 5 5 4 2 3 3 2 2 4 4 5 7 7
Wind_Direction
207 158 228 244 254 241 238 233 221 214 214 209 206 214 219 225 235 246 244 214 240 229 227 219 217 221 222 223 222 221 221 223 227 231 231 228 225 227 226 222 225 218 221
255 226 214 227 237 224 225 243 254 238 231 224 225 228 229 228 233 235 241 240 239 252 223 211 214 220 228 226 225 226 225 227 223 228 240 228 231 231 228 226 234 230 224
215 228 231 241 235 230 238 235 241 245 255 241 237 231 236 236 234 232 241 244 245 237 241 219 218 217 226 223 226 227 226 227 225 223 230 229 228 225 228 232 232 231 230
242 226 241 244 257 245 240 243 254 244 241 236 242 247 242 241 239 237 237 246 241 253 228 236 222 226 231 231 230 233 231 230 232 227 225 231 225 231 229 228 233 236 236
217 227 234 242 226 214 218 227 219 232 242 247 249 247 245 241 242 239 241 242 243 248 248 248 240 224 226 235 236 235 233 246 259 241 233 231 231 234 231 228 233 236 236
220 217 223 220 211 222 214 212 230 215 249 260 264 257 253 245 239 232 237 240 237 244 236 239 247 231 226 236 237 239 242 232 228 256 266 253 243 243 238 231 231 236 237
248 197 203 195 207 240 238 225 235 238 238 230 254 243 246 238 232 228 228 239 232 235 243 237 238 235 230 226 236 231 236 238 230 223 233 249 263 262 262 242 241 242 239
172 175 174 196 242 261 253 242 225 220 241 219 247 249 249 203 221 230 229 239 236 246 249 244 254 248 250 243 239 220 236 237 240 226 224 224 229 239 251 262 263 265 249
61 45 29 318 282 261 262 248 231 221 237 212 235 260 224 236 165 114 198 247 257 251 250 250 251 255 249 250 261 275 3 352 311 266 246 225 222 231 246 253 252 266 265
33 20 357 332 298 263 258 258 247 229 218 230 191 240 253 308 290 152 95 53 40 20 337 269 250 245 257 278 34 66 66 43 28 39 53 45 303 267 270 259 249 261 270
28 20 1 337 311 301 286 271 271 250 207 223 209 193 223 242 250 243 166 164 117 37 45 27 61 63 52 56 81 84 69 53 46 41 40 26 5 336 317 327 299 317 276
34 25 13 14 11 346 2 338 286 289 241 218 224 229 217 205 223 211 172 146 87 59 49 42 72 77 70 60 76 82 76 61 50 38 25 12 352 321 306 301 286 289 289
31 22 18 26 30 23 37 34 32 323 268 236 243 241 239 245 249 231 202 137 141 119 101 38 33 55 64 65 68 71 70 67 61 55 46 46 42 38 30 23 24 350 310
36 21 26 35 43 50 46 54 50 27 36 285 281 234 267 250 262 273 130 137 114 125 102 111 34 47 61 68 76 70 68 70 69 63 57 52 51 55 54 50 45 46 41
53 40 39 46 50 54 47 53 57 55 57 46 33 29 12 1 265 247 179 193 195 153 136 151 112 38 67 77 83 79 76 75 72 67 62 60 59 55 54 55 52 52 53
63 55 50 53 56 56 54 51 49 45 57 52 50 51 39 7 349 329 334 298 174 137 127 57 64 87 75 77 80 78 75 72 69 68 65 61 60 58 54 53 55 53 53
71 63 60 55 54 57 56 63 60 49 56 55 50 51 46 37 35 11 4 89 95 69 109 99 95 91 70 92 78 75 68 68 65 65 66 66 66 64 63 60 56 53 53
75 70 70 71 65 61 58 61 63 57 56 56 52 46 40 34 36 38 48 34 13 94 111 109 95 88 74 72 84 79 70 63 57 67 70 66 69 70 64 62 59 59 57
86 76 75 74 69 68 71 66 65 63 61 54 51 51 42 37 46 37 40 45 61 61 101 136 117 99 108 95 87 69 65 54 52 68 78 72 67 70 72 69 63 55 49
106 95 82 80 80 76 82 80 74 71 66 58 54 54 46 40 42 53 58 56 60 72 80 89 83 89 87 93 101 119 94 72 69 72 80 73 65 73 70 68 65 62 57
117 117 114 98 91 92 79 82 74 68 71 70 62 58 54 55 53 44 45 50 71 79 82 89 90 99 101 148 126 108 100 111 75 69 85 70 71 62 63 65 74 64 64
125 123 114 112 104 90 106 70 79 80 72 63 61 62 60 58 63 55 56 54 40 57 81 91 97 93 101 92 132 142 142 194 144 196 112 67 34 70 71 75 65 72 73
121 116 117 117 104 90 93 98 85 86 84 76 68 64 67 58 58 68 68 72 61 50 44 74 76 56 76 67 111 142 172 37 48 100 178 113 342 110 99 118 84 81 80
131 125 110 106 105 72 56 99 98 96 90 77 71 73 69 62 46 64 72 73 67 58 49 61 61 60 58 64 51 53 148 135 160 149 174 228 175 175 168 127 133 129 123
136 138 124 101 101 94 51 108 108 97 90 78 67 49 71 68 33 24 76 83 83 84 87 76 75 70 61 40 9 294 51 270 216 175 180 298 155 175 187 165 144 157 154
140 134 115 102 79 90 38 169 153 111 107 102 86 74 52 62 45 17 73 83 97 92 82 92 91 95 80 81 44 29 349 319 324 254 93 281 189 248 201 169 178 170 172